Wind_Speed
18 18 16 16 13 12 8 6 4 2 2 3 3 7 9 11 15 11 7 7 14 18 18 22 18 14 12 4 6 9 4 3 8 18 15 24 23 14 10 7 10 15 13 21
19 18 18 14 10 8 7 3 6 10 9 6 9 14 14 10 17 16 12 12 8 9 10 7 11 16 8 11 2 1 5 5 5 8 16 9 8 21 23 15 11 19 13 14
18 19 19 12 10 7 5 3 4 3 3 7 14 14 12 15 7 18 15 10 10 9 12 14 12 17 5 4 9 2 1 6 9 10 5 6 7 14 14 8 13 20 20 30
17 17 19 11 10 6 5 3 4 5 5 8 12 16 13 17 17 13 12 9 19 18 14 13 17 20 19 15 13 13 8 6 8 13 20 15 19 17 16 12 14 15 30 37
18 18 16 13 9 10 7 3 3 4 11 15 17 16 18 20 21 17 20 16 16 19 17 15 19 19 16 12 11 6 8 5 8 15 15 16 21 21 18 16 18 20 26 32
17 18 15 13 11 11 6 7 10 5 10 14 14 15 15 16 20 14 12 18 21 18 17 18 19 20 18 18 17 14 9 6 8 18 13 12 13 21 21 20 21 18 22 25
16 17 15 16 15 16 15 12 8 6 13 14 16 17 21 22 23 21 23 21 20 17 19 19 18 20 20 20 23 18 12 11 8 11 8 14 19 13 15 18 19 19 23 20
17 16 15 17 19 17 19 19 9 5 11 16 18 22 19 21 21 21 23 24 22 18 19 12 10 7 8 14 25 24 21 13 9 7 10 15 21 13 13 16 22 21 23 20
19 17 15 16 18 19 21 21 18 8 7 16 23 22 22 17 16 18 22 22 18 17 4 7 12 11 9 7 5 21 24 21 13 11 9 11 16 13 21 22 22 19 23 23
18 17 17 17 18 18 15 10 13 9 8 17 19 18 16 17 17 13 17 14 8 11 6 9 12 17 16 15 9 6 14 14 20 17 17 13 26 18 11 19 12 12 19 24
19 18 18 18 19 19 16 18 16 16 10 18 23 28 22 15 13 13 7 5 6 4 8 6 5 8 12 15 20 17 13 11 12 13 14 19 29 20 21 18 20 22 20 22
19 15 18 21 20 19 19 22 21 19 10 12 27 31 37 36 32 18 11 8 14 3 4 5 5 6 6 15 16 20 18 13 12 11 12 19 20 15 13 16 20 26 18 18
17 18 21 21 20 20 20 24 24 16 8 11 14 16 28 32 34 33 9 5 6 6 8 3 4 8 5 9 15 18 21 18 18 18 25 25 25 21 23 21 21 22 18 17
18 22 21 21 21 21 21 25 26 16 3 5 5 6 9 13 25 24 25 18 5 3 3 4 4 4 7 10 13 14 14 15 22 19 26 27 25 22 23 20 21 27 25 24
22 20 21 21 21 21 25 29 30 31 5 4 4 7 15 9 12 14 15 12 6 3 4 4 5 4 4 6 5 12 12 18 14 15 19 17 22 19 21 20 22 21 23 22
19 22 21 21 20 19 16 4 5 14 19 3 3 1 4 6 7 7 7 5 4 3 3 3 2 2 4 5 11 16 17 19 21 23 25 25 26 25 27 25 24 23 23 25
22 22 22 21 20 20 6 5 6 12 11 3 3 3 4 4 4 2 3 3 2 2 2 3 4 6 5 4 12 21 17 19 19 22 24 26 27 23 23 25 25 22 22 24
21 21 23 25 23 18 12 18 13 7 4 2 3 3 2 4 2 2 2 2 2 4 2 2 5 3 4 6 16 16 18 19 20 21 22 24 25 26 26 25 23 24 24 24
23 25 22 8 5 3 1 4 8 11 5 3 3 3 3 3 2 2 3 2 3 3 4 3 3 4 7 11 12 15 16 18 20 22 23 24 25 25 25 26 26 25 23 23
21 6 2 2 4 5 6 2 2 3 3 3 3 2 4 3 2 2 2 4 3 3 4 3 4 6 10 8 8 12 15 19 21 23 24 23 24 22 24 27 24 22 21 23
4 2 2 6 6 3 3 3 4 3 3 4 4 5 5 4 4 3 3 2 2 3 3 3 3 4 1 10 13 13 15 17 20 21 22 24 25 24 23 24 23 21 20 19
7 9 10 5 3 4 4 4 3 4 3 3 3 2 2 2 3 3 3 3 3 4 4 3 3 1 10 14 15 17 18 19 21 21 22 25 24 23 22 20 19 18 16 5
6 4 3 3 3 5 5 6 4 3 3 3 3 3 2 3 3 4 3 4 4 1 3 3 2 8 14 15 15 18 19 20 20 22 20 20 18 16 17 15 7 6 6 7
3 3 5 5 5 5 5 4 2 1 3 3 3 5 4 3 4 3 4 2 2 3 3 2 6 14 16 15 14 16 20 20 19 19 19 17 11 9 1 5 7 7 7 6
4 4 5 7 5 3 3 3 4 3 3 3 2 4 4 4 4 3 3 3 4 3 3 5 9 15 13 13 14 16 16 15 13 12 12 11 8 7 8 7 7 8 8 9
4 6 5 3 4 5 3 4 3 1 2 2 3 3 3 6 3 4 6 3 2 2 5 8 11 14 15 14 13 13 13 12 11 10 9 9 9 9 11 12 12 11 12 12
5 5 5 5 4 3 3 3 2 1 2 3 2 3 4 0 3 2 3 3 4 7 8 8 12 13 14 13 13 11 12 11 11 10 9 9 9 8 13 14 12 17 20 20
Wind_Direction
299 301 302 306 309 324 327 295 273 331 205 242 231 251 213 240 263 279 297 297 274 279 290 291 296 287 290 111 123 335 309 274 211 209 210 209 203 191 189 186 186 233 262 267
292 292 295 298 306 323 307 268 286 282 241 258 264 269 258 231 249 251 252 247 267 284 292 302 289 291 303 310 282 209 0 13 316 206 228 259 256 216 195 210 224 205 203 258
291 289 290 285 288 294 289 273 278 251 223 260 272 285 273 276 235 254 238 248 256 280 263 253 258 265 314 28 350 8 215 215 211 280 35 356 329 332 341 271 220 229 227 243
289 282 288 269 272 275 269 239 250 267 280 281 302 296 291 293 281 240 225 238 239 242 248 256 267 280 290 286 278 255 191 280 305 299 299 293 291 294 303 304 302 240 234 244
284 283 282 265 256 256 247 253 246 246 276 281 286 285 276 274 281 270 252 243 230 238 244 259 280 293 296 292 295 67 223 270 272 265 269 279 285 282 274 267 271 269 261 269
286 287 276 271 249 247 249 241 261 259 275 276 279 279 288 297 302 302 275 258 264 262 259 267 267 275 278 272 279 274 262 245 242 263 263 274 278 252 253 258 256 258 261 267
289 290 271 271 259 245 246 253 266 262 271 276 271 276 280 290 288 283 283 282 278 274 283 285 277 267 265 259 253 249 244 241 246 267 266 247 249 259 243 246 249 244 264 275
295 294 273 271 275 262 248 254 237 252 266 272 280 277 277 281 281 274 275 277 270 278 277 270 256 236 249 244 246 235 231 228 245 245 240 269 262 241 236 230 242 237 254 260
283 287 280 278 276 272 267 258 247 244 268 259 268 282 280 275 278 280 268 271 263 255 238 232 241 240 222 206 245 223 223 223 226 226 243 251 267 232 228 243 262 236 251 261
283 282 284 283 282 284 266 259 254 253 258 263 267 265 270 274 265 266 286 270 263 238 219 227 235 243 232 230 216 172 199 212 223 225 240 261 268 261 252 214 240 242 249 266
282 279 282 284 281 278 273 272 265 253 268 274 268 264 261 263 258 265 269 312 215 228 231 232 219 241 224 234 234 208 187 192 217 232 237 248 244 267 237 246 255 261 258 269
284 282 292 287 283 279 277 276 274 265 252 272 280 261 260 262 253 252 249 250 270 272 284 237 231 221 230 223 232 222 227 210 221 206 220 238 253 259 260 244 256 270 268 263
284 287 293 286 283 277 274 275 271 266 257 271 254 249 259 244 242 241 255 230 222 215 220 256 246 249 223 229 233 245 225 229 226 247 242 251 256 254 256 255 250 265 286 259
290 293 289 289 288 277 273 274 272 247 272 266 266 226 246 242 231 232 232 246 244 278 207 219 228 231 221 245 253 244 234 227 236 244 254 257 261 254 257 255 256 270 269 265
297 291 293 290 286 283 283 280 270 253 207 292 280 276 247 225 216 229 239 229 210 203 210 217 222 236 238 229 268 251 246 240 237 243 255 259 261 263 263 263 259 263 270 266
301 298 292 287 287 287 299 280 295 232 195 262 268 57 204 196 223 246 242 234 218 226 230 217 218 262 236 256 255 259 249 239 241 250 256 262 268 273 272 270 264 272 272 271
300 295 293 289 285 281 244 271 308 306 206 245 269 250 151 175 219 220 226 202 227 239 234 226 240 226 198 256 266 261 260 262 264 261 265 269 268 266 270 268 269 271 265 265
302 299 293 292 288 278 259 253 267 249 243 242 255 252 250 172 219 240 183 214 209 213 252 240 246 228 224 253 255 272 273 274 273 271 268 269 273 272 271 272 271 265 258 260
306 306 299 286 211 228 159 259 255 235 237 278 217 244 291 171 219 235 205 228 230 189 232 234 226 232 226 253 289 302 306 303 298 292 286 281 276 273 270 269 266 264 265 262
313 315 233 229 196 288 304 207 220 206 198 231 254 266 251 202 214 230 247 196 238 237 211 159 231 255 274 310 341 316 312 305 302 294 286 279 271 265 264 263 261 265 269 266
328 316 272 327 300 244 221 236 232 185 227 202 235 242 254 179 246 268 227 245 217 244 152 240 230 259 71 337 327 318 317 312 300 291 286 280 276 273 265 262 261 261 266 265
297 292 289 273 240 219 235 213 199 233 257 183 226 194 243 191 231 251 213 253 198 256 138 241 248 96 351 332 325 323 320 315 309 303 295 287 267 259 258 256 259 258 257 238
286 199 236 216 182 238 231 198 204 218 193 189 205 225 243 184 217 249 256 232 242 333 231 249 301 360 344 331 325 321 320 321 317 312 308 302 286 251 248 245 242 153 189 182
250 245 233 222 199 233 221 255 170 2 283 251 264 264 233 206 216 239 245 235 241 246 241 251 358 351 330 327 321 321 320 323 322 322 327 322 291 258 26 118 153 142 136 132
245 235 241 220 241 252 269 293 274 247 289 268 224 240 238 209 233 230 258 216 235 238 349 338 338 329 325 328 326 325 323 328 328 335 341 346 15 59 75 80 92 93 94 93
236 238 248 213 241 231 228 243 250 192 275 260 235 262 234 214 222 219 220 234 216 34 336 321 322 325 327 328 329 328 329 335 344 354 2 15 34 57 78 81 81 80 80 77
217 230 235 243 271 261 234 243 233 154 268 240 266 240 249 169 243 212 13 14 338 327 318 318 320 323 325 329 329 339 337 346 358 7 21 37 45 61 72 75 73 77 74 71
Height
774 772 771 770 768 766 763 759 753 744 745 745 738 725 720 720 716 714 711 707 702 697 692 685 684 683 678 690 703 708 705 689 660 650 640 647 654 661 673 672 675 654 649 618
768 767 767 766 765 764 763 757 748 742 743 740 724 718 719 720 714 711 705 704 701 698 697 698 681 676 679 681 691 691 691 702 689 653 651 653 658 646 653 656 638 649 652 616
764 762 762 762 762 761 761 756 747 741 738 732 730 725 716 712 714 710 709 706 704 708 707 697 683 671 678 680 683 689 696 697 703 675 694 699 691 691 690 674 657 644 632 607
758 757 756 756 757 757 758 753 743 738 731 728 729 724 723 713 708 708 701 707 706 698 696 696 696 687 685 683 681 687 697 696 699 700 693 696 698 694 690 695 693 651 615 601
752 751 751 751 752 753 753 749 745 737 731 728 725 720 714 709 699 702 693 695 688 687 693 696 697 687 687 683 681 679 683 693 688 692 687 683 677 667 667 682 681 674 640 620
746 746 745 746 747 748 745 742 740 741 727 723 721 713 707 708 702 696 691 691 688 689 696 689 684 682 682 680 681 682 686 687 686 677 674 675 679 662 659 654 653 650 637 610
741 740 739 740 740 741 741 738 739 737 724 717 709 704 701 698 699 698 689 688 686 687 684 684 683 678 678 677 672 676 684 685 686 675 677 683 638 636 638 643 640 641 630 630
735 734 734 734 734 734 734 734 735 731 720 710 703 699 697 692 691 689 684 680 681 683 683 689 685 678 683 672 667 663 666 682 679 675 653 639 628 629 632 632 633 632 622 622
729 728 728 727 727 727 726 725 726 724 718 704 700 694 690 689 685 682 677 673 674 678 685 680 668 655 651 656 659 649 655 662 672 666 664 640 600 605 613 622 611 616 611 611
723 722 721 721 721 720 720 717 719 717 706 695 699 693 687 684 683 677 669 667 665 665 665 661 650 634 631 638 649 656 656 662 658 649 655 631 603 610 610 624 614 598 598 593
716 715 715 714 714 713 714 709 711 710 701 687 690 684 682 679 678 671 663 670 664 662 655 644 637 631 620 627 617 625 643 652 645 649 653 644 591 596 608 598 595 595 599 595
710 708 708 707 707 707 706 703 702 702 698 681 678 672 668 666 664 668 663 661 658 655 648 640 631 628 616 610 610 611 612 616 616 618 609 596 585 590 591 595 598 589 593 593
703 702 701 699 699 699 699 696 694 694 687 674 666 653 650 651 650 654 657 653 653 649 645 640 632 626 612 610 606 601 595 599 606 609 585 588 585 588 588 588 586 583 588 589
696 694 693 692 691 691 690 687 684 683 677 660 641 643 643 640 641 644 646 646 647 645 644 637 628 622 607 600 594 592 592 593 594 593 584 579 578 581 580 581 583 580 581 585
689 687 685 684 683 682 680 674 668 667 668 648 639 637 635 637 638 639 639 639 640 638 634 626 619 614 615 605 606 592 589 589 588 580 574 576 572 574 574 576 575 575 576 576
682 680 678 677 676 675 672 661 653 651 654 652 637 631 634 636 637 636 634 634 634 633 624 617 616 612 611 602 586 578 579 579 577 567 569 568 567 569 567 567 567 571 571 568
675 672 670 669 668 668 667 655 653 653 653 649 636 622 628 632 634 633 632 632 630 627 621 616 607 605 612 603 590 575 573 572 572 570 570 568 565 561 561 558 558 561 560 558
668 665 662 660 659 658 654 650 651 650 650 647 632 620 623 629 626 624 627 624 626 621 614 609 602 598 604 593 573 572 569 566 564 563 562 559 557 555 551 550 551 550 547 546
662 658 653 652 651 648 647 648 648 647 649 634 626 614 609 627 621 624 623 624 617 615 612 606 602 589 588 572 566 565 565 565 562 558 557 554 551 545 541 538 537 536 535 535
656 652 651 647 647 646 647 645 643 642 639 637 623 611 611 618 614 612 613 614 607 601 593 600 599 578 571 571 573 571 569 567 562 556 550 546 539 538 534 527 525 523 522 521
655 652 648 646 645 644 640 637 633 626 623 618 613 610 607 614 613 609 606 601 599 594 582 589 575 570 568 572 572 570 568 566 562 557 550 544 539 530 524 517 514 513 511 509
655 655 651 648 642 637 634 624 619 619 608 610 609 608 609 610 613 610 602 597 599 587 589 588 574 567 574 574 571 567 564 560 554 548 542 533 523 519 517 511 507 503 504 509
650 650 646 639 632 632 620 614 606 607 603 605 606 608 608 611 613 608 602 597 587 587 586 574 565 571 577 575 572 566 561 555 549 541 532 521 505 505 504 502 501 506 510 511
647 638 631 627 621 616 603 598 603 603 604 604 607 608 604 602 606 598 599 586 589 584 579 570 570 582 583 578 573 568 560 554 547 538 529 517 500 496 500 503 507 509 511 513
643 635 620 613 607 609 608 609 608 604 608 609 610 608 602 598 601 592 589 589 582 571 575 578 586 587 584 579 574 568 561 555 547 540 532 523 515 510 509 511 512 513 515 516
635 625 614 610 611 607 609 607 607 608 610 609 607 598 597 592 587 585 581 575 573 584 593 594 593 588 583 579 575 569 563 556 549 543 537 532 527 522 519 519 520 522 524 526
620 612 608 609 608 604 604 605 605 610 609 600 596 597 584 586 582 577 591 596 602 603 601 598 596 591 586 581 576 571 565 559 554 549 544 540 536 532 529 529 532 532 534 535